When you browse on this site, cookies collect data to enhance your experience and personalize the content and advertising you see.
Visit our Privacy Policy to learn more. By continuing to use the site, you agree to this use of cookies and data.

Hourly Weather Klagenfurt

Today, 6 August, Thursday

Time Temperature Precipitation Wind Pressure Humidity
00:00 +13°C° 0 mm 1 mps 690 mmHg 87%
01:00 +13°C° 0 mm 1 mps 691 mmHg 86%
02:00 +13°C° 0 mm 1 mps 691 mmHg 87%
03:00 +13°C° 0 mm 1 mps 691 mmHg 87%
04:00 +13°C° 0 mm 1 mps 691 mmHg 88%
05:00 +14°C° 0 mm 1 mps 691 mmHg 86%
06:00 +15°C° 0 mm 1 mps 691 mmHg 84%
07:00 +16°C° 0 mm 1 mps 692 mmHg 83%
08:00 +19°C° 0 mm 1 mps 692 mmHg 76%
09:00 +21°C° 0 mm 1 mps 693 mmHg 70%
10:00 +23°C° 0 mm 1 mps 693 mmHg 63%
11:00 +23°C° 0.4 mm 1 mps 693 mmHg 66%
12:00 +24°C° 0.4 mm 1 mps 693 mmHg 69%
13:00 +23°C° 0 mm 2 mps 693 mmHg 72%
14:00 +24°C° 0.4 mm 2 mps 693 mmHg 72%
15:00 +24°C° 0.4 mm 2 mps 693 mmHg 71%
16:00 +24°C° 0.4 mm 1 mps 693 mmHg 71%
17:00 +22°C° 0.3 mm 1 mps 693 mmHg 78%
18:00 +21°C° 0.3 mm 1 mps 693 mmHg 85%
19:00 +17°C° 0.3 mm 0 mps 693 mmHg 91%
20:00 +18°C° 0 mm 1 mps 693 mmHg 92%
21:00 +16°C° 0 mm 1 mps 693 mmHg 92%
22:00 +15°C° 0 mm 1 mps 693 mmHg 93%
23:00 +15°C° 0 mm 1 mps 693 mmHg 93%

Tomorrow, 7 August, Friday

Time Temperature Precipitation Wind Pressure Humidity
00:00 +15°C° 0 mm 1 mps 693 mmHg 94%
01:00 +15°C° 0 mm 1 mps 693 mmHg 94%
02:00 +15°C° 0 mm 1 mps 693 mmHg 94%
03:00 +15°C° 0 mm 1 mps 693 mmHg 94%
04:00 +14°C° 0 mm 1 mps 692 mmHg 95%
05:00 +15°C° 0 mm 1 mps 693 mmHg 93%
06:00 +16°C° 0 mm 1 mps 693 mmHg 92%
07:00 +18°C° 0 mm 1 mps 693 mmHg 91%
08:00 +21°C° 0 mm 1 mps 694 mmHg 78%
09:00 +23°C° 0 mm 1 mps 694 mmHg 66%
10:00 +25°C° 0 mm 1 mps 695 mmHg 54%
11:00 +26°C° 0 mm 1 mps 695 mmHg 50%
12:00 +27°C° 0 mm 2 mps 695 mmHg 47%
13:00 +28°C° 0 mm 2 mps 695 mmHg 43%
14:00 +27°C° 0 mm 2 mps 694 mmHg 45%
15:00 +27°C° 0 mm 2 mps 694 mmHg 48%
16:00 +27°C° 0 mm 1 mps 694 mmHg 50%
17:00 +25°C° 0 mm 1 mps 694 mmHg 58%
18:00 +23°C° 0 mm 1 mps 693 mmHg 67%
19:00 +21°C° 0 mm 1 mps 693 mmHg 75%
20:00 +20°C° 0 mm 1 mps 693 mmHg 76%
21:00 +19°C° 0 mm 1 mps 693 mmHg 77%
22:00 +18°C° 0 mm 1 mps 694 mmHg 78%
23:00 +16°C° 0 mm 1 mps 693 mmHg 79%

Day after tomorrow, 8 August, Saturday

Time Temperature Precipitation Wind Pressure Humidity
00:00 +16°C° 0 mm 1 mps 693 mmHg 81%
01:00 +16°C° 0 mm 1 mps 693 mmHg 82%
02:00 +16°C° 0 mm 1 mps 693 mmHg 83%
03:00 +15°C° 0 mm 1 mps 693 mmHg 84%
04:00 +15°C° 0 mm 1 mps 693 mmHg 84%
05:00 +16°C° 0 mm 1 mps 693 mmHg 81%
06:00 +19°C° 0 mm 1 mps 693 mmHg 79%
07:00 +20°C° 0 mm 1 mps 694 mmHg 76%
08:00 +22°C° 0 mm 1 mps 694 mmHg 67%
09:00 +24°C° 0 mm 1 mps 694 mmHg 59%
10:00 +26°C° 0 mm 1 mps 695 mmHg 50%
11:00 +27°C° 0 mm 1 mps 694 mmHg 48%
12:00 +28°C° 0 mm 2 mps 694 mmHg 45%
13:00 +28°C° 0 mm 2 mps 694 mmHg 43%
14:00 +28°C° 0 mm 2 mps 694 mmHg 44%
15:00 +28°C° 0 mm 1 mps 694 mmHg 45%
16:00 +28°C° 0 mm 1 mps 694 mmHg 47%
17:00 +26°C° 0 mm 1 mps 693 mmHg 56%
18:00 +24°C° 0 mm 1 mps 693 mmHg 65%
19:00 +20°C° 0 mm 0 mps 693 mmHg 75%
20:00 +19°C° 0.1 mm 0 mps 693 mmHg 76%
21:00 +20°C° 0.1 mm 1 mps 693 mmHg 77%
22:00 +19°C° 0.1 mm 1 mps 693 mmHg 79%
23:00 +19°C° 0 mm 1 mps 693 mmHg 80%

9 August, Sunday

Time Temperature Precipitation Wind Pressure Humidity
00:00 +18°C° 0 mm 1 mps 692 mmHg 81%
01:00 +18°C° 0 mm 1 mps 692 mmHg 82%
02:00 +18°C° 0 mm 1 mps 692 mmHg 84%
03:00 +16°C° 0 mm 1 mps 692 mmHg 85%
04:00 +16°C° 0 mm 1 mps 692 mmHg 86%
05:00 +18°C° 0 mm 1 mps 692 mmHg 84%
06:00 +20°C° 0 mm 1 mps 692 mmHg 81%
07:00 +21°C° 0 mm 1 mps 693 mmHg 78%
08:00 +23°C° 0 mm 1 mps 693 mmHg 70%
09:00 +25°C° 0 mm 1 mps 693 mmHg 62%
10:00 +27°C° 0 mm 1 mps 694 mmHg 54%
11:00 +28°C° 0 mm 1 mps 694 mmHg 51%
12:00 +29°C° 0 mm 1 mps 693 mmHg 48%
13:00 +29°C° 0 mm 1 mps 693 mmHg 45%
14:00 +29°C° 0.2 mm 1 mps 693 mmHg 48%
15:00 +28°C° 0.2 mm 1 mps 693 mmHg 51%
16:00 +28°C° 0.2 mm 1 mps 692 mmHg 54%
17:00 +26°C° 0.2 mm 1 mps 692 mmHg 63%
18:00 +24°C° 0.2 mm 1 mps 692 mmHg 73%
19:00 +22°C° 0.2 mm 1 mps 691 mmHg 83%
20:00 +21°C° 0.2 mm 1 mps 692 mmHg 84%
21:00 +20°C° 0.2 mm 1 mps 692 mmHg 85%
22:00 +19°C° 0.2 mm 1 mps 692 mmHg 86%
23:00 +19°C° 0 mm 1 mps 691 mmHg 87%

10 August, Monday

Time Temperature Precipitation Wind Pressure Humidity
00:00 +18°C° 0 mm 1 mps 691 mmHg 87%
01:00 +18°C° 0 mm 1 mps 691 mmHg 87%
02:00 +18°C° 0 mm 1 mps 691 mmHg 87%
03:00 +18°C° 0 mm 1 mps 691 mmHg 88%
04:00 +16°C° 0 mm 1 mps 691 mmHg 88%
05:00 +18°C° 0 mm 1 mps 691 mmHg 87%
06:00 +17°C° 0 mm 0 mps 691 mmHg 85%
07:00 +19°C° 0 mm 0 mps 691 mmHg 83%
08:00 +23°C° 0 mm 1 mps 692 mmHg 74%
09:00 +25°C° 0 mm 1 mps 692 mmHg 65%
10:00 +27°C° 0 mm 1 mps 693 mmHg 56%
11:00 +28°C° 0.1 mm 1 mps 693 mmHg 55%
12:00 +28°C° 0.1 mm 1 mps 692 mmHg 53%
13:00 +29°C° 0.1 mm 1 mps 692 mmHg 51%
14:00 +29°C° 0.1 mm 1 mps 692 mmHg 51%
15:00 +28°C° 0.1 mm 1 mps 692 mmHg 51%
16:00 +28°C° 0.1 mm 1 mps 692 mmHg 52%
17:00 +26°C° 0.1 mm 1 mps 692 mmHg 60%
18:00 +24°C° 0.1 mm 1 mps 691 mmHg 69%
19:00 +20°C° 0.1 mm 0 mps 691 mmHg 78%
20:00 +19°C° 0.1 mm 0 mps 691 mmHg 79%
21:00 +21°C° 0.1 mm 1 mps 691 mmHg 80%
22:00 +20°C° 0.1 mm 1 mps 691 mmHg 81%
23:00 +19°C° 0.2 mm 1 mps 691 mmHg 82%

11 August, Tuesday

Time Temperature Precipitation Wind Pressure Humidity
00:00 +19°C° 0.2 mm 1 mps 691 mmHg 84%
01:00 +18°C° 0.2 mm 1 mps 691 mmHg 86%
02:00 +18°C° 0.1 mm 1 mps 691 mmHg 87%
03:00 +18°C° 0.1 mm 1 mps 691 mmHg 88%
04:00 +16°C° 0.1 mm 1 mps 691 mmHg 89%
05:00 +16°C° 0 mm 0 mps 691 mmHg 88%
06:00 +18°C° 0 mm 0 mps 691 mmHg 86%
07:00 +19°C° 0 mm 0 mps 691 mmHg 85%
08:00 +21°C° 0.2 mm 0 mps 692 mmHg 78%
09:00 +23°C° 0.2 mm 0 mps 692 mmHg 72%
10:00 +27°C° 0.2 mm 1 mps 692 mmHg 66%
11:00 +27°C° 0.8 mm 1 mps 692 mmHg 64%
12:00 +28°C° 0.8 mm 1 mps 692 mmHg 62%
13:00 +26°C° 0.8 mm 0 mps 692 mmHg 60%
14:00 +28°C° 0.6 mm 1 mps 692 mmHg 60%
15:00 +28°C° 0.6 mm 1 mps 692 mmHg 60%
16:00 +27°C° 0.6 mm 1 mps 691 mmHg 60%
17:00 +26°C° 0.5 mm 1 mps 691 mmHg 67%
18:00 +22°C° 0.5 mm 0 mps 691 mmHg 74%
19:00 +20°C° 0.5 mm 0 mps 690 mmHg 82%
20:00 +19°C° 0.2 mm 0 mps 690 mmHg 83%
21:00 +20°C° 0.2 mm 1 mps 690 mmHg 85%
22:00 +19°C° 0.2 mm 1 mps 690 mmHg 86%
23:00 +19°C° 0.1 mm 1 mps 690 mmHg 87%
Show more